Hourly Data Report for September 14, 2017

All times are specified in Local Standard Time (LST). Add 1 hour to adjust for Daylight Saving Time where and when it is observed.

IQALUIT CLIMATE
NUNAVUT

63°44'50.000" N
68°32'40.000" W
33.50 m
2402592
71321
XFB

Download Data

Hourly Data (September 2017)
Hourly Data Report for September 14, 2017
Temp Definition
°C
Dew Point Temp Definition
°C
Rel Hum Definition
%
Wind Dir Definition
10's deg

Wind Spd Definition
km/h
Visibility Definition
km
Stn Press Definition
kPa
Hmdx Definition


Wind Chill Definition


Weather Definition


TIME
00:00 5.6 2.2 78 5 29   99.41     LegendNANA
01:00 5.9 2.6 79 6 21   99.42     LegendNANA
02:00 5.4 2.6 83 12 18   99.48     LegendNANA
03:00 3.5 2.4 93 14 8   99.54     LegendNANA
04:00 5.2 3.2 87 9 18   99.56     LegendNANA
05:00 5.3 3.3 87 7 11   99.58     LegendNANA
06:00 5.5 3.2 85 9 10   99.60     LegendNANA
07:00 5.7 3.3 84 12 4   99.62     LegendNANA
08:00 6.6 3.5 80 9 16   99.63     LegendNANA
09:00 6.6 3.0 78 10 16   99.68     LegendNANA
10:00 7.0 2.9 75 9 14   99.70     LegendNANA
11:00 6.8 2.2 73 7 18   99.71     LegendNANA
12:00 7.0 1.6 68 7 14   99.71     LegendNANA
13:00 8.3 1.5 62 8 18   99.71     LegendNANA
14:00 8.2 1.0 60 6 15   99.71     LegendNANA
15:00 8.5 0.7 58 5 13   99.72     LegendNANA
16:00 7.3 0.6 62 5 18   99.77     LegendNANA
17:00 6.4 0.5 66 6 8   99.81     LegendNANA
18:00 5.9 0.9 71 2 9   99.85     LegendNANA
19:00 5.3 1.2 75 2 9   99.87     LegendNANA
20:00 4.3 1.1 80 1 9   99.90     LegendNANA
21:00 4.6 1.6 81 33 9   99.93     LegendNANA
22:00 4.7 2.2 84 36 10   99.94     LegendNANA
23:00 4.6 2.3 85 2 5   99.97     LegendNANA

Notes on Data Quality.

Legend

  • E = Estimated
  • M = Missing
  • NA = Not Available
  • ‡ = Partner data that is not subject to review by the National Climate Archives
Date modified: